Terminal Aerodrome Forecast
Issued by NWS State College, PA

Home | Current Version | Previous Version | Text Only | Print | Product List | Glossary On
Versions: 1 2 3 4 5 6 7 8 9 10 11 12 13 14 15 16 17 18 19 20 21 22 23 24 25 26 27 28 29 30 31 32 33 34 35 36 37 38 39 40 41 42 43 44 45 46 47 48 49 50
000
FTUS41 KCTP 232125 AAB
TAFIPT
TAF AMD
KIPT 232125Z 2321/2418 29010KT P6SM VCTS BKN050CB
      TEMPO 2322/2324 27010KT 3SM -TSRA OVC025CB
     FM240000 29009KT P6SM VCSH BKN035
     FM240300 29006KT 3SM BR BKN020
     FM241300 32009KT P6SM SCT040=

USA.gov is the U.S. government's official web portal to all federal, state and local government web resources and services.